User: anonymous   Login
Location: Caltech
(34.1382°N, 118.1253°W)
Time: 18:15:27
(UTC-08:00)
Language:

Lacrosse 5 - Orbit

View from above orbital plane
View from above orbital plane
View from above satellite
View from above satellite

Ground track
Ground track

The orbit data is extracted from the following two-line orbital elements,

1 28646U 05016A   18050.11434330 0.00000000  00000-0  00000-0 0    04
2 28646  57.0110 285.0321 0007000 158.9764 201.0235 14.51910232    01
Epoch (UTC): 19 February 2018 02:44:39
Eccentricity: 0.0007000
inclination: 57.0110°
perigee height: 714 km
apogee height: 724 km
right ascension of ascending node: 285.0321°
argument of perigee: 158.9764°
revolutions per day: 14.51910232
mean anomaly at epoch: 201.0235°
orbit number at epoch: 0

The dashed part of the orbit path shows where the satellite is in the earth's shadow,  

DLR